• Processing (Info)

  • MPEC 1998-L14 : 1998 LE

    The following Minor Planet Electronic Circular may be linked-to from your own Web pages, but must not otherwise be redistributed electronically.

    A form allowing access to any MPEC is at the bottom of this page.


    Read MPEC 1998-L13 Read MPEC 1998-L15


    M.P.E.C. 1998-L14                                Issued 1998 June 6, 16:05 UT
    
         The Minor Planet Electronic Circulars contain information on unusual
             minor planets and routine data on comets.  They are published
       on behalf of Commission 20 of the International Astronomical Union by the
              Minor Planet Center, Smithsonian Astrophysical Observatory,
                              Cambridge, MA 02138, U.S.A.
    
                 BMARSDEN@CFA.HARVARD.EDU or GWILLIAMS@CFA.HARVARD.EDU
                       URL http://cfa-www.harvard.edu/iau/mpc.html
    
                                        1998 LE
    
    Observations:
         J98L00E* C1998 06 04.33004 18 10 45.46 +06 35 12.3          17.4        704
         J98L00E  C1998 06 04.34300 18 10 46.35 +06 38 38.5                      704
         J98L00E  C1998 06 04.35627 18 10 47.04 +06 42 09.9          17.7        704
         J98L00E  C1998 06 04.36948 18 10 47.73 +06 45 40.7          17.4        704
         J98L00E  C1998 06 04.38243 18 10 48.43 +06 49 07.9                      704
         J98L00E  C1998 06 04.99578 18 11 48.33 +09 43 30.9          17.0 V      046
         J98L00E  C1998 06 04.99627 18 11 48.38 +09 43 40.4                      046
         J98L00E  C1998 06 04.99684 18 11 48.43 +09 43 50.3                      046
         J98L00E  C1998 06 04.99737 18 11 48.43 +09 44 00.4                      046
         J98L00E  C1998 06 04.99788 18 11 48.50 +09 44 09.6                      046
         J98L00E  C1998 06 05.89220 18 13 32.61 +14 43 06.9          16.4 V      596
         J98L00E  C1998 06 05.89500 18 13 32.97 +14 44 10.2                      596
         J98L00E  C1998 06 05.94837 18 13 37.82 +15 03 46.3          17.3 V      557
         J98L00E  C1998 06 05.94976 18 13 37.97 +15 04 17.2                      557
         J98L00E  C1998 06 05.98780 18 13 41.86 +15 18 32.1          16.3 V      046
         J98L00E  C1998 06 05.98832 18 13 41.92 +15 18 44.0                      046
         J98L00E  C1998 06 05.98882 18 13 41.98 +15 18 55.0                      046
         J98L00E  C1998 06 05.98929 18 13 42.02 +15 19 06.1                      046
         J98L00E  C1998 06 05.98980 18 13 42.07 +15 19 17.6                      046
         J98L00E  C1998 06 05.99438 18 13 42.51 +15 21 00.5          15.9 V      046
         J98L00E  C1998 06 05.99490 18 13 42.58 +15 21 12.8                      046
         J98L00E  C1998 06 05.99738 18 13 42.79 +15 22 06.8                      557
         J98L00E  C1998 06 06.00153 18 13 43.21 +15 23 40.5                      557
         J98L00E  C1998 06 06.00200 18 13 43.26 +15 23 51.1                      557
         J98L00E  C1998 06 06.00246 18 13 43.31 +15 24 01.5          16.7 V      557
         J98L00E  C1998 06 06.22425 18 14 16.74 +16 49 44.8          16.8 V      709
         J98L00E  C1998 06 06.22691 18 14 17.05 +16 50 48.2          16.5 V      709
         J98L00E  C1998 06 06.22795 18 14 17.16 +16 51 12.8          17.0 V      709
         J98L00E  C1998 06 06.22980 18 14 17.36 +16 51 56.7          16.5 V      709
         J98L00E  C1998 06 06.30847 18 14 26.72 +17 22 54.3                      658
         J98L00E  C1998 06 06.30928 18 14 26.83 +17 23 13.6                      658
         J98L00E  C1998 06 06.31043 18 14 26.96 +17 23 41.2                      658
         J98L00E  C1998 06 06.32083 18 14 28.27 +17 28 16.7                      670
         J98L00E  C1998 06 06.32847 18 14 29.14 +17 31 22.3                      670
         J98L00E  C1998 06 06.33993 18 14 30.30 +17 36 00.5                      670
         J98L00E  C1998 06 06.35521 18 14 31.92 +17 42 11.6          16.6 V      670
         J98L00E  C1998 06 06.35625 18 14 31.98 +17 42 36.5                      670
         J98L00E  C1998 06 06.59602 18 15 09.20 +19 24 10.2          17.8 V      426
         J98L00E  C1998 06 06.59781 18 15 09.35 +19 24 54.7          17.2 V      426
         J98L00E  C1998 06 06.59998 18 15 09.67 +19 25 50.9          17.0 V      426
         J98L00E  C1998 06 06.60215 18 15 09.91 +19 26 46.4          17.3 V      426
         J98L00E  C1998 06 06.60736 18 15 10.52 +19 29 01.4          17.0 V      426
         J98L00E  C1998 06 06.61038 18 15 10.89 +19 30 18.6          17.2 V      426
    
    Observer details:
    046 Klet.  Observers J. Ticha, M. Tichy, Z. Moravec.  Measurer M. Tichy.
        0.57-m f/5.2 reflector + CCD.
    426 Woomera.  Observer F. B. Zoltowski.  0.30-m f/3.3 Schmidt-Cassegrain + CCD.
    557 Ondrejov.  Observer L. Sarounova.  0.65-m f/3.6 reflector + CCD.
    596 Colleverde di Guidonia.  Observer V. S. Casulli.  0.40-m f/2.95 reflector
        + CCD.
    658 Dominion Astrophysical Observatory.  Observer D. D. Balam.  1.82-m
        reflector + CCD.
    670 Camarillo.  Observer J. E. Rogers.  0.25-m Schmidt-Cassegrain + CCD.
    704 Lincoln Laboratory ETS, New Mexico.  Observers M. Blythe, F. Shelly,
        M. Bezpalko.  Measurers J. Stuart, H. Viggh.  1.0-m f/2.15 reflector + CCD.
    709 Cloudcroft.  Observer W. Offutt.  0.6-m Ritchey-Chretien + CCD.
    
    Orbital elements:
    1998 LE
    Epoch 1998 May 27.0 TT = JDT 2450960.5                  Williams
    M 325.31867              (2000.0)            P               Q
    n   0.53017455     Peri.  132.51028     +0.97565921     -0.17348530
    a   1.5119014      Node   237.90065     +0.12389991     +0.94078126
    e   0.6979346      Incl.    9.11055     +0.18093623     +0.29126184
    P   1.86           H   20.5           G   0.15
    From 43 observations 1998 June 4-6.
    
    Ephemeris:
    1998 LE                  a,e,i = 1.51, 0.70, 9                   q = 0.4567
    Date    TT    R. A. (2000) Decl.     Delta      r     Elong.  Phase     V
    1998 06 06.0  18 13.71   +15 23.8    0.087    1.081   137.4    39.4    16.9
    1998 06 06.5  18 14.86   +18 42.0    0.083    1.074   134.5    42.3    16.9
    1998 06 07.0  18 16.19   +22 22.4    0.078    1.068   131.2    45.6    16.9
    1998 06 07.5  18 17.74   +26 26.7    0.074    1.062   127.5    49.3    16.8
    1998 06 08.0  18 19.57   +30 56.4    0.071    1.056   123.3    53.5    16.8
    1998 06 08.5  18 21.78   +35 51.6    0.068    1.049   118.6    58.1    16.9
    1998 06 09.0  18 24.51   +41 11.1    0.065    1.043   113.5    63.2    16.9
    1998 06 09.5  18 27.95   +46 52.1    0.064    1.037   108.0    68.7    17.0
    1998 06 10.0  18 32.44   +52 49.1    0.062    1.030   102.2    74.4    17.1
    1998 06 10.5  18 38.55   +58 55.0    0.062    1.024    96.2    80.3    17.3
    1998 06 11.0  18 47.32   +65 01.0    0.062    1.017    90.2    86.3    17.5
    1998 06 11.5  19 00.9    +70 57.4    0.063    1.011    84.2    92.2    17.8
    1998 06 12.0  19 24.8    +76 33.4    0.065    1.005    78.5    97.9    18.1
    1998 06 12.5  20 15.0    +81 32.8    0.067    0.998    73.1   103.2    18.4
    1998 06 13.0  22 28      +85 05.4    0.070    0.992    68.1   108.2    18.8
    1998 06 13.5  02 09.9    +84 51.6    0.073    0.985    63.5   112.7    19.1
    1998 06 14.0  03 57.5    +81 50.9    0.077    0.979    59.3   116.8    19.5
    1998 06 14.5  04 39.6    +78 26.2    0.081    0.972    55.5   120.6    19.9
    1998 06 15.0  05 00.5    +75 11.0    0.085    0.966    52.1   123.9    20.2
    1998 06 15.5  05 12.8    +72 11.4    0.090    0.959    49.0   127.0    20.6
    1998 06 16.0  05 20.92   +69 28.1    0.095    0.952    46.2   129.7    21.0
    
    Gareth V. Williams           (C) Copyright 1998 MPC           M.P.E.C. 1998-L14
    

    Read MPEC 1998-L13 Read MPEC 1998-L15


    MPEC number:

    Enter an MPEC number in one of the following forms:

    • 1997-B01 (the full form)
    • J97B01 (the packed version of the full form)
    • B01 (the abbreviated form)